Buffalo, WY

2:36 AM MDT on May 27, 2018 (GMT -0600)
Johnson County

Weather History for KBYG - October, 2013

Change the Weather History Date:

Wednesday, October 30, 2013

  Actual Average Record
Temperature  
Mean Temperature 37 °F 42 °F  
Max Temperature 49 °F 53 °F 69 °F (2008)
Min Temperature 24 °F 30 °F 8 °F (2002)
Degree Days  
Heating Degree Days 28 24  
Month to date heating degree days 662 568  
Since 1 July heating degree days 814 882  
Cooling Degree Days 0 0  
Month to date cooling degree days 0 0  
Year to date cooling degree days 709 491  
Moisture  
Dew Point 28 °F    
Average Humidity 73    
Maximum Humidity 100    
Minimum Humidity 46    
Precipitation  
Precipitation 0.00 in 0.01 in 0.09 in (1998)
Month to date precipitation 2.22 0.92  
Year to date precipitation 9.98 12.50  
Sea Level Pressure  
Sea Level Pressure 29.84 in    
Wind  
Wind Speed 5 mph (SW)    
Max Wind Speed 13 mph    
Max Gust Speed 15 mph    
Visibility 6 miles    
Events Fog    
T = Trace of Precipitation, MM = Missing Value Source: NWS Daily Summary

Daily Weather History Graph

Daily Weather History Graph

Search for Another Location

Airport or City:

Astronomy

Oct. 30, 2013 Rise Set
Actual Time 7:41 AM MDT 5:58 PM MDT
Civil Twilight 7:11 AM MDT 6:28 PM MDT
Nautical Twilight 6:37 AM MDT 7:02 PM MDT
Astronomical Twilight 6:03 AM MDT 7:36 PM MDT
Moon 3:24 AM MDT (10/30) 3:53 PM MDT (10/30)
Length of Visible Light 11h 17m
Length of Day
10h 16m
Waning Crescent, 16% of the Moon is Illuminated
Oct 30
Waning Crescent
Nov 3
New
Nov 9
First Quarter
Nov 17
Full
Nov 25
Last Quarter

Hourly Weather History & Observations

Time (MDT) Temp. Windchill Dew Point Humidity Pressure Visibility Wind Dir Wind Speed Gust Speed Precip Events Conditions
12:05 AM 30.2 °F 23.4 °F 28.4 °F 93% 29.86 in 1.0 mi SE 6.9 mph - 0.01 in   Mist
12:14 AM 30.2 °F 23.4 °F 28.4 °F 93% 29.85 in 0.5 mi SE 6.9 mph - 0.01 in Fog Light Freezing Fog
12:28 AM 30.2 °F 23.4 °F 28.4 °F 93% 29.85 in 1.2 mi SSE 6.9 mph - 0.01 in   Overcast
12:35 AM 30.2 °F 22.6 °F 28.4 °F 93% 29.84 in 1.0 mi SSE 8.1 mph - 0.01 in   Overcast
12:45 AM 30.2 °F 23.4 °F 28.4 °F 93% 29.83 in 0.8 mi SSE 6.9 mph - 0.01 in   Overcast
12:50 AM 30.2 °F 21.9 °F 28.4 °F 93% 29.83 in 1.2 mi SSE 9.2 mph - 0.01 in   Overcast
12:53 AM 30.0 °F 22.4 °F 28.0 °F 92% 29.91 in 2.0 mi SSE 8.1 mph - 0.01 in   Overcast
1:05 AM 30.2 °F 21.9 °F 28.4 °F 93% 29.83 in 6.0 mi SSE 9.2 mph - N/A   Overcast
1:32 AM 30.2 °F 20.8 °F 28.4 °F 93% 29.82 in 10.0 mi SSE 11.5 mph - N/A   Overcast
1:53 AM 30.0 °F 24.1 °F 28.0 °F 92% 29.88 in 10.0 mi South 5.8 mph - N/A   Overcast
2:12 AM 30.2 °F 25.4 °F 28.4 °F 93% 29.81 in 10.0 mi Variable 4.6 mph - N/A   Overcast
2:50 AM 28.4 °F 21.2 °F 26.6 °F 93% 29.80 in 10.0 mi NW 6.9 mph - N/A   Overcast
2:53 AM 28.0 °F 20.0 °F 26.1 °F 92% 29.88 in 10.0 mi WNW 8.1 mph - N/A   Overcast
3:01 AM 28.4 °F 19.7 °F 26.6 °F 93% 29.81 in 1.5 mi WNW 9.2 mph - N/A   Overcast
3:04 AM 28.4 °F 20.4 °F 26.6 °F 93% 29.81 in 0.8 mi NW 8.1 mph - N/A   Overcast
3:23 AM 26.6 °F 18.2 °F 26.6 °F 100% 29.80 in 1.2 mi NW 8.1 mph - N/A   Overcast
3:27 AM 28.4 °F 20.4 °F 26.6 °F 93% 29.80 in 3.0 mi NNW 8.1 mph - N/A   Overcast
3:39 AM 28.4 °F 23.3 °F 26.6 °F 93% 29.81 in 1.8 mi North 4.6 mph - N/A   Overcast
3:45 AM 28.4 °F - 26.6 °F 93% 29.81 in 0.8 mi Calm Calm - N/A   Overcast
3:53 AM 28.0 °F - 28.0 °F 100% 29.88 in 0.5 mi Calm Calm - N/A Fog Light Freezing Fog
4:14 AM 28.4 °F - 28.4 °F 100% 29.81 in 1.2 mi Calm Calm - N/A   Overcast
4:20 AM 28.4 °F - 26.6 °F 93% 29.81 in 3.0 mi Calm Calm - N/A   Overcast
4:27 AM 28.4 °F - 26.6 °F 93% 29.81 in 1.5 mi Calm Calm - N/A   Overcast
4:30 AM 28.4 °F - 26.6 °F 93% 29.81 in 0.8 mi Calm Calm - N/A   Mist
4:53 AM 28.9 °F - 28.0 °F 96% 29.87 in 0.5 mi Calm Calm - N/A Fog Light Freezing Fog
5:53 AM 27.0 °F 20.5 °F 25.0 °F 92% 29.86 in 0.2 mi West 5.8 mph - N/A Fog Light Freezing Fog
6:53 AM 25.0 °F - 24.1 °F 96% 29.87 in 0.2 mi Calm Calm - N/A Fog Light Freezing Fog
7:53 AM 26.1 °F 15.6 °F 24.1 °F 92% 29.88 in 0.2 mi SSW 11.5 mph - N/A Fog Light Freezing Fog
8:08 AM 24.8 °F 16.1 °F 23.0 °F 93% 29.80 in 3.0 mi WSW 8.1 mph - N/A   Mostly Cloudy
8:18 AM 26.6 °F 19.1 °F 23.0 °F 86% 29.80 in 10.0 mi WSW 6.9 mph - N/A   Scattered Clouds
8:53 AM 28.9 °F 23.9 °F 25.0 °F 85% 29.89 in 10.0 mi West 4.6 mph - N/A   Clear
9:53 AM 27.0 °F 20.5 °F 24.1 °F 89% 29.90 in 10.0 mi SSE 5.8 mph - N/A   Clear
10:53 AM 30.9 °F 25.2 °F 28.9 °F 92% 29.88 in 10.0 mi South 5.8 mph - N/A   Clear
11:53 AM 36.0 °F 31.1 °F 33.1 °F 89% 29.86 in 10.0 mi SSE 5.8 mph - N/A   Clear
12:53 PM 42.1 °F 37.1 °F 32.0 °F 67% 29.83 in 10.0 mi SSE 8.1 mph - N/A   Clear
1:53 PM 46.0 °F 41.9 °F 30.9 °F 56% 29.79 in 10.0 mi SSW 8.1 mph - N/A   Clear
2:53 PM 46.9 °F - 30.0 °F 52% 29.78 in 10.0 mi Variable 3.5 mph - N/A   Partly Cloudy
3:53 PM 48.0 °F - 28.9 °F 48% 29.78 in 10.0 mi North 8.1 mph - N/A   Clear
4:53 PM 45.0 °F 40.1 °F 28.9 °F 53% 29.80 in 10.0 mi North 9.2 mph - N/A   Clear
5:53 PM 39.9 °F 34.5 °F 30.0 °F 68% 29.82 in 10.0 mi NNW 8.1 mph - N/A   Partly Cloudy
6:53 PM 39.0 °F 34.0 °F 30.0 °F 70% 29.85 in 10.0 mi NNW 6.9 mph - N/A   Mostly Cloudy
7:53 PM 34.0 °F 29.8 °F 28.0 °F 79% 29.88 in 10.0 mi WSW 4.6 mph - N/A   Clear
8:53 PM 36.0 °F 33.3 °F 28.9 °F 76% 29.86 in 10.0 mi WSW 3.5 mph - N/A   Overcast
9:53 PM 37.0 °F 32.4 °F 28.9 °F 73% 29.86 in 10.0 mi WSW 5.8 mph - N/A   Clear
10:53 PM 35.1 °F 31.0 °F 28.0 °F 76% 29.85 in 10.0 mi SW 4.6 mph - N/A   Clear
11:53 PM 33.1 °F - 26.1 °F 75% 29.83 in 10.0 mi Calm Calm - N/A   Clear